STARLINK-1255 (45399 NORAD) Tracking and Keplerian Element Data

This shows tracking and keplerian element data for the satellite.

Feedback or suggestion? Click here.




ElementValue
Catalog45399
NameSTARLINK-1255
Epoch Orbit1790
Epoch Day190.25001157
Epoch Year2020
RAAN71.2878
Inclination52.9981
Eccentricity0.0001427
Argument of Perigee62.9855
Mean Anonmoly28.767
Mean Motion15.135511
Decay Rate-0.01117063
L11 45399U 20019AR 20190.25001157 -.01117063 00000-0 -66709-1 0 9995
L22 45399 52.9981 71.2878 0001427 62.9855 28.7670 15.13551100 17907

Live tracking and technical data element details for STARLINK-1255 (NORAD 45399). STARLINK-1255 can be tracked NOW for your location showing map with azimuth and elevation plus other details from your city location.

Track the satellite on the map from your city or location and see movement details for azimuth, elevation, latitude, longitude, range, height, and movement on the map or in text.







IsCatalogInMostPopularTable: catalog: 45399, numindb: 25
Update: records affected: 1



GetName: 45399 STARLINK-1255

Hit Count: updated at: Thu, 09 Jul 2020 00:51:05 GMT